Regional Weather Roundup
Issued by NWS

Home | Current Version | Previous Version | Text Only | Print | Product List | Glossary Off
Versions: 1 2 3 4 5 6 7 8 9 10 11 12 13 14 15 16 17 18 19 20 21 22 23 24 25 26 27 28 29 30 31 32 33 34 35 36 37 38 39 40 41 42 43 44 45 46 47 48 49 50

000
ASUS45 KCYS 290610
RWRWY

WYOMING REGIONAL WEATHER ROUNDUP
NATIONAL WEATHER SERVICE CHEYENNE WY
1200 AM MDT WED MAR 29 2017

NOTE:  "FAIR" INDICATES FEW OR NO CLOUDS BELOW 12,000 FEET
WITH NO SIGNIFICANT WEATHER AND/OR OBSTRUCTIONS TO VISIBILITY.

WYZ001-290700-
YELLOWSTONE NATIONAL PARK

CITY           SKY/WX    TMP DP  RH WIND       PRES   REMARKS
LK YELLOWSTONE   N/A     20  16  84 CALM      30.21F
6HR MIN TEMP:  20; 6HR MAX TEMP:  39;

W YELLOWSTONE  NOT AVBL

$$
WYZ002>013-054>058-071-098>099-290700-
NORTHERN WYOMING

CITY           SKY/WX    TMP DP  RH WIND       PRES   REMARKS
JACKSON        FAIR      27  25  93 N5        30.20S WCI  21
CODY           FAIR      38  30  73 SW5       30.14F WCI  34
GREYBULL       FAIR      39  34  82 SE5       30.12F
6HR MIN TEMP:  39; 6HR MAX TEMP:  55;

WORLAND        FAIR      36  34  92 SE7       30.12F WCI  30
6HR MIN TEMP:  35; 6HR MAX TEMP:  50;

SHERIDAN       FAIR      33  30  88 CALM      30.12F
6HR MIN TEMP:  31; 6HR MAX TEMP:  47;

BUFFALO        FAIR      38  31  76 W7        30.12F WCI  33
6HR MIN TEMP:  34; 6HR MAX TEMP:  43;

GILLETTE       CLOUDY    40  37  89 W7        30.12F
6HR MIN TEMP:  39; 6HR MAX TEMP:  48;

HULETT         CLOUDY    43  39  87 CALM      30.12F
NEWCASTLE      MOCLDY    37  37 100 CALM      30.12F

$$
WYZ014>020-022>026-101>103-290700-
CENTRAL WYOMING

CITY           SKY/WX    TMP DP  RH WIND       PRES   REMARKS
BIG PINEY      FAIR      29  21  72 NW7       30.19R WCI  22
6HR MIN TEMP:  28; 6HR MAX TEMP:  46;

PINEDALE       FAIR      30  21  69 NW12      30.19R WCI  21
DUBOIS         FAIR      32  18  55 W18       30.15F WCI  20
LANDER         FAIR      36  29  75 MISG      30.13F
6HR MIN TEMP:  33; 6HR MAX TEMP:  45;

RIVERTON       FAIR      36  31  82 SW3       30.15F
6HR MIN TEMP:  35; 6HR MAX TEMP:  49;

CASPER         CLOUDY    35  33  92 NW3       30.15S
6HR MIN TEMP:  34; 6HR MAX TEMP:  42;

DOUGLAS        CLOUDY    39  37  92 NW5       30.13S
6HR MIN TEMP:  39; 6HR MAX TEMP:  41; 6HR PCP:  0.01;


$$
WYZ021-027>030-104>119-290700-
SOUTHERN WYOMING

CITY           SKY/WX    TMP DP  RH WIND       PRES   REMARKS
EVANSTON       FAIR      31  22  69 N6        30.22S WCI  25
6HR MIN TEMP:  30; 6HR MAX TEMP:  43;

KEMMERER         N/A     30  21  69 W7        30.20F WCI  23
FORT BRIDGER   FAIR      32  25  74 W12       30.23  WCI  23
ROCK SPRINGS   MOCLDY    36  31  82 SW3       30.17S
6HR MIN TEMP:  34; 6HR MAX TEMP:  41; 6HR PCP: TRACE;

DIXON            N/A     34  29  82 N3        30.16R
RAWLINS        CLOUDY    36  31  82 CALM      30.15S
6HR MIN TEMP:  33; 6HR MAX TEMP:  39;

SARATOGA       CLOUDY    34  34 100 N7        30.14S WCI  28
LARAMIE        CLOUDY    32  32 100 N7        30.10R WCI  26
6HR MIN TEMP:  32; 6HR MAX TEMP:  35; 6HR PCP:  0.02;

CHEYENNE       MIX PCPN  34  33  96 N9        30.07F FOG     WCI  27
6HR MIN TEMP:  34; 6HR MAX TEMP:  39; 6HR PCP:  0.04;

TORRINGTON     CLOUDY    40  38  93 NE5       30.10F
6HR MIN TEMP:  39; 6HR MAX TEMP:  41; 6HR PCP:  0.04;

PINE BLUFFS    CLOUDY    34  34 100 N7        30.08F WCI  28

$$



USA.gov is the U.S. government's official web portal to all federal, state and local government web resources and services.